{"data":{"norad_id":56377,"intl_designator":"2023-061D","name":"STARLINK-6189","alt_names":[],"object_type":"PAYLOAD","status":"ACTIVE","operator":null,"country":"US","launch_date":"2023-05-04","launch_site_code":"AFETR","launch_vehicle":null,"mission":null,"orbit_class":"UNKNOWN","rcs_meters":null,"size_class":null,"mass_kg":null,"dimensions":null,"purposes":["comms"],"wikipedia_slug":null,"has_3d_model":false,"image_url":null,"decayed_at":null,"tle_current":{"epoch":"2026-05-24T23:52:29.533728Z","epoch_age_seconds":86230,"freshness":"FRESH","line1":"1 56377U 23061D   26144.99478627  .00001858  00000+0  77018-4 0  9997","line2":"2 56377  43.0001 127.4732 0001695 215.2915 144.7825 15.27582392168415","mean_motion":15.27582392,"eccentricity":0.0001695,"inclination_deg":43.0001,"raan_deg":127.4732,"arg_perigee_deg":215.2915,"mean_anomaly_deg":144.7825,"bstar":7.7018e-5,"rev_number":16841,"period_min":94.266601103896,"perigee_km":481.87896371125,"apogee_km":484.20490336972,"semimajor_km":6861.1789335405,"source":"CELESTRAK","updated_at":"2026-05-25T13:38:18.010779Z"}}}